Weather History for Stockton, CA

Change the Weather History Date:

Wednesday, September 19, 2012

  Actual Average Record
Temperature  
Mean Temperature 69 °F -  
Max Temperature 86 °F 87 °F 102 °F (2000)
Min Temperature 51 °F 56 °F 46 °F (1965)
Degree Days  
Heating Degree Days 0 0  
Month to date heating degree days 0 0  
Since 1 July heating degree days 0 0  
Cooling Degree Days 4 7  
Month to date cooling degree days 163 159  
Year to date cooling degree days 1210 1203  
Growing Degree Days 18 (Base 50)    
Moisture  
Dew Point 48 °F    
Average Humidity 55    
Maximum Humidity 83    
Minimum Humidity 27    
Precipitation  
Precipitation 0.00 in 0.01 in 0.52 in (1977)
Month to date precipitation T 0.14  
Year to date precipitation 6.48 9.18  
Since 1 July precipitation 0.01 0.15  
Snow  
Snow 0.00 in - 0.00 in (2002)
Month to date snowfall 0.0  
Since 1 July snowfall 0.0  
Since 1 September snowfall 0.0  
Snow Depth -    
Sea Level Pressure  
Sea Level Pressure 30.01 in    
Wind  
Wind Speed 8 mph (NW)    
Max Wind Speed 14 mph    
Max Gust Speed 17 mph    
Visibility 10 miles    
Events      
T = Trace of Precipitation, MM = Missing Value Source: NWS Daily Summary

Daily Weather History Graph

Daily Weather History Graph

Search for Another Location

Airport:

Trip Planner

Search our weather history database for the weather conditions in past years. The results will help you decide how hot, cold, wet, or windy it might be!

Date:

Astronomy

Sep. 19, 2012 Rise Set
Actual Time 6:50 AM PDT 7:05 PM PDT
Civil Twilight 6:24 AM PDT 7:31 PM PDT
Nautical Twilight 5:53 AM PDT 8:02 PM PDT
Astronomical Twilight 5:22 AM PDT 8:33 PM PDT
Moon 11:01 AM PDT (9/19) 9:24 PM PDT (9/19)
Length of Visible Light 13h 07m
Length of Day
12h 15m
Waxing Crescent, 18% of the Moon is Illuminated
Sep 19
Waxing Crescent
Sep 22
First Quarter
Sep 29
Full
Oct 8
Last Quarter
Oct 15
New

Hourly Weather History & Observations

Time (PDT) Temp. Dew Point Humidity Pressure Visibility Wind Dir Wind Speed Gust Speed Precip Events Conditions
12:55 AM 61.0 °F 46.9 °F 60% 30.01 in 10.0 mi NW 9.2 mph - N/A   Clear
1:55 AM 59.0 °F 48.0 °F 67% 30.02 in 10.0 mi NW 8.1 mph - N/A   Clear
2:55 AM 57.0 °F 48.0 °F 72% 30.02 in 10.0 mi NW 6.9 mph - N/A   Clear
3:55 AM 55.0 °F 48.0 °F 77% 30.01 in 10.0 mi NW 4.6 mph - N/A   Clear
4:55 AM 57.0 °F 48.0 °F 72% 30.01 in 10.0 mi WNW 8.1 mph - N/A   Clear
5:55 AM 55.0 °F 48.0 °F 77% 30.02 in 10.0 mi Calm Calm - N/A   Clear
6:55 AM 52.0 °F 46.0 °F 80% 30.03 in 6.0 mi NW 5.8 mph - N/A   Haze
7:55 AM 59.0 °F 48.9 °F 69% 30.04 in 8.0 mi North 3.5 mph - N/A   Clear
8:55 AM 62.1 °F 50.0 °F 65% 30.05 in 10.0 mi North 4.6 mph - N/A   Clear
9:55 AM 66.0 °F 50.0 °F 56% 30.06 in 10.0 mi NNW 4.6 mph - N/A   Partly Cloudy
9:57 AM 66.2 °F 50.0 °F 56% 30.06 in 10.0 mi Variable 4.6 mph - N/A   Clear
10:55 AM 71.1 °F 48.9 °F 45% 30.06 in 10.0 mi WNW 9.2 mph - N/A   Clear
11:55 AM 73.9 °F 50.0 °F 43% 30.05 in 10.0 mi NW 6.9 mph - N/A   Clear
12:55 PM 80.1 °F 51.1 °F 36% 30.03 in 10.0 mi NNW 10.4 mph - N/A   Clear
1:55 PM 81.0 °F 48.9 °F 33% 30.00 in 10.0 mi NW 10.4 mph - N/A   Clear
2:55 PM 82.9 °F 46.9 °F 28% 29.99 in 10.0 mi WNW 12.7 mph - N/A   Clear
3:55 PM 84.0 °F 46.0 °F 26% 29.97 in 10.0 mi WNW 12.7 mph - N/A   Clear
4:55 PM 84.0 °F 46.9 °F 27% 29.96 in 8.0 mi NW 11.5 mph - N/A   Clear
5:55 PM 82.0 °F 48.0 °F 30% 29.96 in 10.0 mi NW 10.4 mph - N/A   Clear
6:55 PM 75.9 °F 48.9 °F 38% 29.96 in 10.0 mi NW 12.7 mph - N/A   Clear
7:55 PM 70.0 °F 48.0 °F 46% 29.97 in 10.0 mi West 15.0 mph - N/A   Clear
8:55 PM 66.9 °F 46.0 °F 47% 29.98 in 10.0 mi WNW 10.4 mph - N/A   Clear
9:55 PM 63.0 °F 46.9 °F 56% 29.99 in 10.0 mi NW 8.1 mph - N/A   Clear
10:55 PM 61.0 °F 46.0 °F 58% 29.99 in 10.0 mi NNW 4.6 mph - N/A   Clear
11:55 PM 60.1 °F 48.0 °F 64% 29.99 in 10.0 mi Calm Calm - N/A   Clear